WX8TJG-WX Weather Reports


time (UTC)temp
F
wind
direction
speed
knots
gust
knots
rain 1hr
in
rain 24hr
in
rain mn
in
humidity
%
barometer
mb
20260510232017 59 316 2.6 5.2 0.00 0.13 0.01 47 1018.9
20260510231017 60 315 4.3 7.8 0.00 0.13 0.01 46 1019.0
20260510230017 60 313 3.5 7.0 0.00 0.13 0.01 47 1019.0
20260510225039 61 312 4.3 7.8 0.00 0.13 0.01 47 1019.1
20260510224018 61 326 2.6 5.2 0.00 0.13 0.01 47 1019.0
20260510223018 61 304 3.5 8.7 0.00 0.13 0.01 49 1018.9
20260510222018 60 333 2.6 5.2 0.00 0.13 0.01 49 1018.9
20260510221018 59 25 1.7 2.6 0.00 0.13 0.01 52 1019.0
20260510220018 58 313 3.5 5.2 0.00 0.13 0.01 51 1018.8
20260510215015 59 318 2.6 5.2 0.00 0.13 0.01 52 1018.7
20260510214016 59 323 3.5 6.1 0.00 0.13 0.01 51 1018.5
20260510213016 61 329 3.5 6.1 0.00 0.13 0.01 49 1018.2
20260510212016 61 252 2.6 4.3 0.00 0.13 0.01 47 1018.0
20260510211016 60 324 1.7 5.2 0.00 0.13 0.01 50 1018.0
20260510210017 59 341 1.7 3.5 0.00 0.13 0.01 52 1018.2
20260510205016 59 290 4.3 7.0 0.00 0.13 0.01 51 1018.1
20260510204017 60 307 2.6 5.2 0.00 0.13 0.01 51 1018.2
20260510203017 61 328 3.5 9.6 0.00 0.13 0.01 50 1018.0
20260510202017 59 34 1.7 4.3 0.00 0.13 0.01 51 1018.2
20260510201037 60 353 2.6 3.5 0.00 0.13 0.01 49 1018.3
20260510200017 60 358 3.5 8.7 0.00 0.13 0.01 49 1018.4
20260510195018 60 316 4.3 7.8 0.00 0.13 0.01 49 1018.4
20260510194018 60 52 1.7 6.1 0.00 0.13 0.01 49 1018.4
20260510193018 59 319 2.6 7.8 0.00 0.13 0.01 51 1018.5
20260510192018 59 352 2.6 6.1 0.00 0.13 0.01 50 1018.5
20260510191016 60 343 2.6 6.1 0.00 0.13 0.01 50 1018.4
20260510190035 59 289 4.3 7.8 0.00 0.13 0.01 50 1018.2
20260510185016 59 2 2.6 6.1 0.00 0.13 0.01 52 1018.2
20260510184036 59 23 2.6 8.7 0.00 0.13 0.01 51 1018.3
20260510183016 59 332 4.3 11.3 0.00 0.13 0.01 51 1018.3
20260510182056 59 323 4.3 7.0 0.00 0.13 0.01 52 1018.2
20260510181017 59 328 4.3 8.7 0.00 0.13 0.01 54 1018.1
20260510180016 59 349 3.5 7.0 0.00 0.13 0.01 52 1017.9
20260510175037 58 329 4.3 7.0 0.00 0.13 0.01 53 1017.7
20260510174017 58 314 2.6 7.0 0.00 0.13 0.01 53 1017.9
20260510173017 58 349 3.5 7.8 0.00 0.13 0.01 55 1018.0
20260510172017 58 29 3.5 8.7 0.00 0.13 0.01 56 1018.1
20260510171018 58 350 3.5 7.0 0.00 0.13 0.01 55 1018.1
20260510170018 58 42 5.2 7.8 0.00 0.13 0.01 56 1018.3
20260510165038 57 21 3.5 7.0 0.00 0.13 0.01 57 1018.3
20260510164018 57 19 3.5 7.0 0.00 0.13 0.01 58 1018.2
20260510163038 57 23 3.5 7.8 0.00 0.13 0.01 58 1018.1
20260510162100 57 24 3.5 7.8 0.00 0.13 0.01 61 1018.1
20260510161018 56 18 4.3 8.7 0.00 0.13 0.01 61 1018.0
20260510160016 56 26 5.2 10.4 0.00 0.13 0.01 61 1018.0
20260510155016 55 29 4.3 8.7 0.00 0.13 0.01 61 1017.9
20260510154016 55 14 5.2 9.6 0.00 0.13 0.01 62 1017.8
20260510153038 55 17 4.3 8.7 0.00 0.13 0.01 65 1017.6
20260510152016 55 21 6.1 9.6 0.00 0.13 0.01 66 1017.5
20260510151017 55 51 4.3 7.8 0.00 0.13 0.01 67 1017.3
20260510150037 54 39 4.3 7.8 0.00 0.13 0.01 67 1017.2
20260510145017 54 28 3.5 7.0 0.00 0.13 0.01 69 1017.2
20260510144017 53 19 5.2 8.7 0.00 0.13 0.01 70 1017.0
20260510143017 53 33 6.1 9.6 0.00 0.13 0.01 70 1016.6
20260510142017 53 34 6.1 12.2 0.00 0.13 0.01 71 1016.6
20260510141017 53 35 4.3 7.8 0.00 0.13 0.01 73 1016.4
20260510140018 52 40 5.2 10.4 0.00 0.13 0.01 74 1016.3
20260510135018 51 36 6.1 10.4 0.00 0.13 0.01 75 1016.3
20260510134058 51 17 4.3 7.8 0.00 0.13 0.01 78 1016.4
20260510133018 51 19 4.3 8.7 0.00 0.13 0.01 78 1016.3
20260510132018 50 27 4.3 6.1 0.00 0.13 0.01 78 1016.3
20260510131015 50 13 3.5 7.0 0.00 0.13 0.01 78 1016.2
20260510130015 50 24 3.5 7.0 0.00 0.13 0.01 78 1016.1
20260510125016 50 11 2.6 6.1 0.00 0.13 0.01 77 1016.0
20260510124016 50 8 2.6 5.2 0.00 0.13 0.01 77 1015.9
20260510123016 50 10 2.6 5.2 0.00 0.13 0.01 77 1015.6
20260510122016 50 16 2.6 7.0 0.00 0.13 0.01 76 1015.4
20260510121017 50 7 1.7 5.2 0.00 0.13 0.01 77 1015.2
20260510120017 49 358 0.9 2.6 0.00 0.13 0.01 77 1015.3
20260510115017 49 20 1.7 3.5 0.00 0.13 0.01 77 1015.0
20260510114037 49 15 0.9 1.7 0.00 0.13 0.01 77 1014.6
20260510113037 49 8 1.7 2.6 0.00 0.13 0.01 78 1014.4
20260510112018 49 21 0.9 2.6 0.00 0.13 0.01 77 1014.4
20260510111018 49 340 1.7 3.5 0.00 0.13 0.01 78 1014.1
20260510110018 49 18 1.7 3.5 0.00 0.13 0.01 78 1013.7
20260510105038 49 0 0.9 2.6 0.00 0.13 0.01 77 1013.8
20260510104018 49 347 0.9 2.6 0.00 0.13 0.01 77 1013.7
20260510103015 49 12 1.7 3.5 0.00 0.13 0.01 76 1013.4
20260510102016 49 4 1.7 3.5 0.00 0.13 0.01 76 1013.3
20260510101017 49 12 2.6 4.3 0.00 0.13 0.01 76 1013.0
20260510100036 49 0 1.7 4.3 0.00 0.13 0.01 77 1012.8
20260510095016 49 10 2.6 4.3 0.00 0.13 0.01 77 1012.7
20260510094016 49 11 2.6 4.3 0.00 0.13 0.01 78 1012.5
20260510093016 49 20 2.6 5.2 0.00 0.13 0.01 78 1012.6
20260510092017 49 6 1.7 3.5 0.00 0.13 0.01 78 1012.4
20260510091016 49 4 2.6 4.3 0.00 0.13 0.01 79 1012.4
20260510090037 49 360 2.6 3.5 0.00 0.13 0.01 79 1012.2
20260510085017 50 347 1.7 3.5 0.00 0.13 0.01 80 1012.2
20260510084017 50 351 1.7 3.5 0.00 0.13 0.01 80 1012.1
20260510083017 50 338 1.7 3.5 0.00 0.13 0.01 80 1012.0
20260510082021 51 0 1.7 3.5 0.00 0.13 0.01 78 1011.8
20260510081020 52 357 2.6 4.3 0.00 0.13 0.01 78 1011.7
20260510080038 52 17 3.5 5.2 0.00 0.13 0.01 77 1011.5
20260510075038 52 24 3.5 7.0 0.00 0.13 0.01 77 1011.4
20260510074018 53 24 3.5 7.0 0.00 0.13 0.01 77 1011.2
20260510073018 53 18 3.5 6.1 0.00 0.13 0.01 78 1011.2
20260510072015 54 10 3.5 6.1 0.00 0.13 0.01 81 1011.2
20260510071016 54 11 2.6 5.2 0.00 0.13 0.01 83 1011.2
20260510070036 55 347 2.6 6.1 0.00 0.13 0.01 83 1011.0
20260510065020 55 331 2.6 6.1 0.00 0.13 0.01 83 1010.8
20260510064016 56 332 3.5 6.1 0.00 0.13 0.01 84 1010.8
20260510063016 56 310 1.7 2.6 0.00 0.13 0.01 88 1010.7
20260510062016 56 321 2.6 3.5 0.00 0.13 0.01 89 1010.6
20260510061017 56 318 2.6 5.2 0.00 0.13 0.01 89 1010.4
20260510060017 55 312 1.7 4.3 0.00 0.13 0.01 91 1010.4
20260510055017 54 353 0.9 2.6 0.00 0.13 0.01 92 1010.4
20260510054037 53 293 0.9 4.3 0.00 0.13 0.01 93 1010.3
20260510053017 52 338 1.7 3.5 0.00 0.13 0.01 94 1010.0
20260510052017 53 334 0.9 3.5 0.00 0.13 0.01 92 1009.8
20260510051018 54 10 0.9 2.6 0.00 0.14 0.01 91 1009.7
20260510050018 54 162 0.0 1.7 0.01 0.14 0.01 90 1009.6
20260510045018 55 332 0.0 1.7 0.01 0.15 0.01 89 1009.5
20260510044018 56 172 1.7 4.3 0.06 0.15 0.01 89 1009.4
20260510043015 56 178 1.7 2.6 0.12 0.15 0.01 88 1009.4
20260510042016 57 199 0.9 2.6 0.12 0.15 0.01 88 1009.5
20260510041015 58 213 2.6 6.1 0.11 0.18 0.01 87 1009.4
20260510040040 58 209 4.3 10.4 0.11 0.20 0.00 87 1009.5
20260510035016 57 233 3.5 7.8 0.11 0.24 0.22 92 1009.7
20260510034016 54 232 1.7 5.2 0.05 0.20 0.17 95 1009.4
20260510033017 54 139 0.0 1.7 0.00 0.14 0.11 95 1008.8
20260510032057 54 142 0.0 1.7 0.00 0.14 0.11 95 1008.9
20260510031037 54 141 0.9 2.6 0.00 0.15 0.11 94 1008.9
20260510030037 54 136 0.0 1.7 0.00 0.15 0.11 94 1009.0
20260510025017 54 147 1.7 2.6 0.00 0.15 0.11 94 1008.9
20260510024017 55 181 0.0 0.9 0.00 0.16 0.11 93 1009.0
20260510023017 55 173 0.9 2.6 0.00 0.17 0.11 92 1008.9
20260510022017 55 49 0.0 0.9 0.00 0.17 0.11 92 1008.9
20260510021019 56 184 0.9 1.7 0.01 0.17 0.11 91 1008.8
20260510020018 56 353 0.9 1.7 0.01 0.17 0.11 90 1008.6
20260510015018 56 12 0.0 0.0 0.01 0.17 0.11 89 1008.3
20260510014018 57 0.0 0.0 0.01 0.17 0.11 88 1008.1
20260510013018 57 187 0.9 1.7 0.01 0.17 0.11 87 1008.0
20260510012041 57 149 0.0 1.7 0.00 0.17 0.11 86 1007.9
20260510011016 57 172 0.0 1.7 0.00 0.17 0.10 87 1007.9
20260510010016 57 150 0.9 2.6 0.00 0.17 0.10 86 1007.9
20260510005036 57 145 0.9 1.7 0.00 0.17 0.10 84 1007.7
20260510004016 58 338 0.0 1.7 0.00 0.17 0.10 82 1007.7
20260510003017 58 54 0.0 1.7 0.00 0.17 0.10 81 1007.7
20260510002017 59 29 0.9 2.6 0.00 0.17 0.10 80 1007.7
20260510001017 59 2 1.7 3.5 0.00 0.17 0.10 78 1007.6
20260510000017 60 325 4.3 7.8 0.00 0.17 0.10 78 1007.8
20260509235017 62 307 5.2 10.4 0.00 0.17 0.10 75 1007.9
20260509234017 67 307 7.8 12.2 0.00 0.17 0.10 63 1007.4
20260509233018 68 257 4.3 7.8 0.00 0.17 0.10 60 1006.7